Погода в Большом Хомутце

Россия / Липецкая область     52°47′27″N   39°51′24″E
темп.,
°C
ветер,
м/с
пор.,
м/с
влажн.,
%
обл.,
%
осадки,
мм/ч
давл.,
гПа
погр.,
м
23 октября, сб
сб2300:00+9зюз410675 0.0 1009301
03:00+7юз49680 0.0 1010253
06:00+6юз49715 0.0 1010225
09:00+8зюз6135818 0.0 1011656
12:00+12юз7154237 0.0 10101661
15:00+13зюз6124371 0.0 10101787
18:00+9зсз6115299 0.0 1011595
21:00+7з510665 0.0 1013511
24 октября, вс
вс2400:00+6з511755 0.0 1014539
03:00+4з5107610 0.0 1015506
06:00+3юз511765 0.0 1015286
09:00+6юз51162100 0.0 1016530
12:00+8з7106299 0.1 10161406
15:00+7з6964100 0.2 10171216
18:00+5зсз5972100 0.3 1018753
21:00+4сз6107370 0.4 1020871
25 октября, пн
пн2500:00+2ссз6107157 0.0 1022891
03:00+1ссз611705 0.0 1024875
06:000ссз512755 0.0 1026610
09:00+1ссз510725 0.0 1029649
12:00+4ссз56445 0.0 10301050
15:00+5ссз4540100 0.0 10301079
18:00+2сз23537 0.0 1031131
21:00+1з23595 0.0 103253
26 октября, вт
вт2600:000зюз36645 0.0 1032121
03:000зюз39685 0.0 1032195
06:00−1юз497394 0.0 1031206
09:00+2зюз51164100 0.0 1030346
12:00+6зюз6947100 0.0 1029602
15:00+7зюз5942100 0.0 1028729
18:00+4юз4105154 0.0 1028260
21:00+4юз5125081 0.0 1027325
27 октября, ср
ср2700:00+3юз5125251 0.0 1026311
03:00+2юз512525 0.0 1026311
06:00+1юз512505 0.0 1025293
09:00+3юз514435 0.0 1024405
12:00+8юз712320 0.0 1022754
15:00+9юз711310 0.0 10201000
18:00+7юз51237100 0.0 1020443
21:00+6зюз51244100 0.0 1019460